Regional Weather Roundup
Issued by NWS Wakefield, VA

Home | Current Version | Previous Version | Text Only | Print | Product List | Glossary Off
Versions: 1 2 3 4 5 6 7 8 9 10 11 12 13 14 15 16 17 18 19 20 21 22 23 24 25 26 27 28 29 30 31 32 33 34 35 36 37 38 39 40 41 42 43 44 45 46 47 48 49 50

031
ASUS41 KAKQ 260715
RWRAKQ

REGIONAL WEATHER ROUNDUP
NATIONAL WEATHER SERVICE WAKEFIELD VA
300 AM EDT SUN MAR 26 2017

Note: "fair" indicates few or no clouds below 12,000 feet with no
significant weather and/or obstructions to visibility. * = Denotes
station may not report precipitation (e.g., rain,snow,etc.),
thunder or fog.

VAZ042-051-052>054-056-260800-
NORTHERN VIRGINIA

CITY           SKY/WX    TMP DP  RH WIND       PRES   REMARKS
WASH NATIONAL  MOCLDY    52  44  74 E16G23    30.25S
DULLES         CLOUDY    53  45  74 E12       30.23R
FORT BELVOIR   CLOUDY    54  44  69 CALM      30.24R
QUANTICO       CLOUDY    55  47  74 NE14      30.23R
FREDERICKSBRG* CLOUDY    64  53  68 NE5       30.18R
STAFFORD*      CLOUDY    63  51  66 E10       30.23S
WARRENTON      CLOUDY    65  48  52 E8        30.18S
CULPEPER*      MOCLDY    59  51  75 CALM      30.18R
MANASSAS*        N/A     57  46  66 E10G18    30.21R
LEESBURG*      CLOUDY    54  46  76 E12G17    30.25R
WINCHESTER     CLOUDY    55  46  71 E8G17     30.19R
FRONT ROYAL*   CLOUDY    57  50  77 N3        30.16S
LURAY*         MOSUNNY   55  52  88 CALM      30.16S
$$

VAZ048-049-060>072-079>083-260800-
CENTRAL AND SOUTH CENTRAL VIRGINIA

CITY           SKY/WX    TMP DP  RH WIND       PRES   REMARKS
RICHMOND       PTCLDY    58  51  78 S6        30.19F
CHESTERFIELD*  FAIR     N/A N/A N/A S5        30.21S
PETERSBURG*    PTCLDY    53  50  90 CALM      30.20F
HANOVER        PTCLDY    60  49  66 S7        30.20F
TAPPAHANNOCK*  PTCLDY    60  41  49 S3        30.20S
QUINTON*       FAIR      60  52  75 CALM      30.19F
CHARLOTTSVILLE CLEAR     58  49  72 S7        30.16S
GORDONSVILLE*  SUNNY     51  49  91 CALM      30.17S
ORANGE*        CLEAR     50  46  87 CALM      30.18F
LOUISA*        CLEAR     55  52  88 SE3       30.16F
BUMPASS*       FAIR      57  51  79 CALM      30.18S
FARMVILLE*     CLOUDY    58  52  79 S3        30.17S
CREWE*         FAIR      58  52  79 S3        30.18S
FORT PICKETT*  FAIR      58  47  68 S3        30.19S
CHASE CITY*    FAIR      58  51  75 CALM      30.19S
CLARKSVILLE*   FAIR      59  52  77 S7        30.19S
SOUTH HILL*    PTCLDY    56  52  85 S5        30.25S
LAWRENCEVILLE* FAIR      59  51  75 MISG      30.20S
EMPORIA*       CLOUDY    55  50  82 CALM      30.23S
$$

VAZ088>098-260800-
SOUTHEAST VIRGINIA

CITY           SKY/WX    TMP DP  RH WIND       PRES   REMARKS
NORFOLK        PTCLDY    58  51  78 S8        30.21F
VIRGINIA BEACH PTCLDY    59  51  75 SW7       30.21F
NORFOLK NAVAL  CLOUDY    61  51  70 SW8       30.23S
WEST POINT*    CLEAR     57  49  76 CALM      30.22R
SALUDA*        FAIR      61  53  73 S7        30.19F
NEWPORT NEWS   CLOUDY    59  51  75 S6        30.21F
LANGLEY AFB    CLOUDY    60  53  75 S6        30.21S
FORT EUSTIS    CLOUDY    59  51  75 S5        30.18F
WILLIAMSBURG*  PTCLDY    59  54  82 CALM      30.21F
HR EXEC AP*    FAIR      57  50  77 S5        30.21R
FRANKLIN*      CLOUDY    58  51  78 SE3       30.23S
US460-WAKEFLD  CLOUDY    58  52  80 CALM      30.21F
$$

VAZ020-022-025-037-045-260800-
WEST CENTRAL AND SOUTHWEST VIRGINIA

CITY           SKY/WX    TMP DP  RH WIND       PRES   REMARKS
STAUNTON*      PTCLDY    47  44  88 CALM      30.18F
WAYNESBORO*    SUNNY     54  48  81 CALM      30.17S
HOT SPRINGS VA CLEAR     52  41  66 CALM      30.21F
LYNCHBURG      PTCLDY    50  46  86 CALM      30.18S
DANVILLE       PTCLDY    59  52  77 S7        30.18S
SOUTH BOSTON*  FAIR      59  50  72 CALM      30.18S
MARTINSVILLE   CLEAR     46  42  88 CALM      30.20F
ROANOKE        PTCLDY    59  47  64 CALM      30.17F
BLACKSBURG     CLEAR     47  44  89 CALM      30.20F
DUBLIN*        PTCLDY    50  45  83 CALM      30.18F
MARION*        MOCLDY    56  48  74 CALM      30.18F
HILLSVILLE*    PTCLDY    54  48  80 S8        30.17S
RICHLANDS*     FAIR      57  46  68 CALM      30.13F
WISE*          CLOUDY    57  45  62 S6        30.11F
ABINGDON*      PTCLDY    58  47  66 S6        30.12F
$$

MDZ021>025-VAZ099-100-260800-
SOUTHERN MARYLAND AND THE DELMARVA PENINSULA

CITY           SKY/WX    TMP DP  RH WIND       PRES   REMARKS
PATUXENT RIVER CLOUDY    49  48  97 NE7       30.24S
BAY BRIDGE APT CLOUDY    48  41  76 E15G23    30.28F
LEONARDTOWN    CLOUDY    50  43  76 E5        30.25S
DOVER          CLOUDY    46  46 100 E13       30.30R
GEORGETOWN     CLOUDY    46  42  86 NE13      30.29F
EASTON         CLOUDY    48  41  76 E9        30.31S
CAMBRIDGE      CLOUDY    48  43  81 VRB5G13   30.26S
SALISBURY      CLOUDY    48  46  93 NE9       30.27S
OCEAN CITY     CLOUDY    47  45  93 NE10      30.27S
WALLOPS ISLAND MOCLDY    47  46  97 NE12      30.25S
ACCOMACK*      CLOUDY    58  52  81 SW3       30.21F
$$

NCZ012>017-030>032-260800-
NORTH CENTRAL AND EASTERN NORTH CAROLINA

CITY           SKY/WX    TMP DP  RH WIND       PRES   REMARKS
ROANOKE RAPIDS FAIR      57  52  82 S3        30.21S
RALEIGH        MOCLDY    59  52  77 SW7       30.20F
ELIZABETH CITY PTCLDY    56  52  86 CALM      30.23F
AHOSKIE*         N/A     56  53  88 CALM      30.22S
EDENTON*       PTCLDY    56  53  88 CALM      30.24F
CURRITUCK*     PTCLDY    57  52  85 CALM      30.24F
KILL DEVIL HLS NOT AVBL
MANTEO         PTCLDY    55  53  92 CALM      30.25F
CAPE HATTERAS  MOCLDY    63  55  75 W3        30.24F
TARBORO*       NOT AVBL
GOLDSBORO      PTCLDY    59  58  95 CALM      30.20F
WASHINGTON     CLOUDY    56  54  90 CALM      30.23F
GREENVILLE     MOCLDY    59  55  88 S3        30.23S
NEW BERN       PTCLDY    51  51 100 CALM      30.23F
WILMINGTON     CLOUDY    60  56  86 SE3       30.21F
$$

VAZ048-260800-
ELSEWHERE

CITY           SKY/WX    TMP DP  RH WIND       PRES   REMARKS
HARRISBURG PA  CLOUDY    47  40  76 E8        30.31R
BALTIMORE      CLOUDY    47  43  86 NE20      30.28S
ANNAPOLIS      CLOUDY    50  43  77 E9        30.28S
ANDREWS AFB    MOCLDY    49  42  76 E13       30.24S
PHILADELPHIA   CLOUDY    44  38  79 E10       30.35S
HENDERSON NC   PTCLDY    55  49  78 S5        30.20S
GREENSBORO     PTCLDY    57  52  83 S10       30.18F
ROCKY MOUNT    PTCLDY    52  51  97 CALM      30.22S
$$

VAZ100-260800-
MARINE

STATION/POSITION TIME  TEMP    WIND        PRES    WAVE   SWELL
                       AIR SEA DIR/SP/G            HT/PER HT/PER
                 (UTC) (F)     (DEG/KT/KT) (MB)    (FT/S) (FT/S)
CAPE MAY NJ      0648   45 44   80/ 16/ 22 1025.1F
LEWES DE         0648      47   90/ 15/ 18 1025.9F
OCEAN-CITY-INLET 0648   47 47   30/  7/ 11 1025.6F
WACHAPREAGUE VA  0648   56 56  220/  2/  3 1022.8F
THOMAS POINT MD  0700   48 45   70/ 14/ 16   N/A
GOOSES REEF MD   0700   47 45  100/  8/ 10 1025.2    1/ 2
COVE POINT MD    0648   47      70/ 10/ 10 1024.8S
SOLOMONS ISLAND  0648   49 47   70/  5/  8   N/A
BISHOPS HEAD MD  0648   48 51   50/ 10/ 14 1024.1F
PINEY POINT MD   0642           70/ 12/ 16   N/A
POTOMAC MD       0700   49 46   50/ 14/ 17 1023.0    1
CAMBRIDGE MD     0648   47 49   70/ 13/ 18 1023.9F
LEWISETTA VA     0648   50 48   60/  7/ 12 1023.3R
RAPPAHANNOCK LGT 0642          180/ 12/ 12 1023.5S
STINGRAY PT      0650   55     210/  4/  4 1022.6S
YORK RVR RNG VA  0648   56     230/  7/  8 1022.4R
YORKTOWN VA      0648   62 50  200/  9/ 11 1022.2F
JAMESTOWN VA     0700   60 53  180/  4/  6   N/A
DOMINION TERM VA 0648   56     190/  2/  3 1023.3S
KIPTOPEKE VA     0642      48  170/  5/  6   N/A
CHES BAY BRIDGE  0648   60 49  210/ 11/ 11 1022.9F
CAPE HENRY VA    0648   62     200/  8/ 12   N/A
WILLOUBY STN VA  0648   62     200/ 10/ 11 1024.0F
S CRANEY ISL VA  0648   59     200/  6/  7 1023.0F
CAPE HENRY BUOY  0642      49                N/A     2/20
CAPE CHARLES BUO 0651      47                N/A     2/ 7
OFFSHORE WE BUOY 0651      49                N/A     2/ 7
64NM E OF VA BCH 0650   53 49  220/  8/ 10 1023.8F   3/ 5   2/ 5
DUCK PIER NC     0648   59 47  200/  8/  9 1023.4F
44100 DUCK FRF   0635      49                N/A     2/ 6
44056 DUCK FRF   0630      49                N/A     1/ 7
OREGON INLET NC  0642   56 59  190/  4/  5 1024.2F
HATTERAS NC      0648   61 58  260/  3/  4 1023.8F
DIAMOND SHLS NC  0650   69 76  180/ 16/ 19 1024.2F   3/ 7   2/ 7
CAPE LOOKOUT NC  0600   65     170/ 11/ 15 1024.0F
$$




USA.gov is the U.S. government's official web portal to all federal, state and local government web resources and services.